SCP
0 0 0 0 0 0 0 0 0 0 0 0 0 0 0 0 0 0 0 0 0 0 0 0 0 0 0 0 0 0 0 0 0 0 0 0 0 0 0 0 0 0 0 0
0 0 0 0 0 0 0 0 0 0 0 0 0 0 0 0 0 0 0 0 0 0 0 0 0 0 0 0 0 0 0 0 0 0 0 0 0 0 0 0 0 0 0 0
0 0 0 0 0 0 0 0 0 0 0 0 0 0 0 0 0 0 0 0 0 0 0 0 0 0 0 0 0 0 0 0 0 0 0 0 0 0 0 0 0 0 0 0
0 0 0 0 0 0 0 0 0 0 0 0 0 0 0 0 0 0 0 0 0 0 0 0 0 0 0 0 0 0 0 0 0 0 0 0 0 0 0 0 0 0 0 0
0 0 0 0 0 0 0 0 0 0 0 0 0 0 0 0 0 0 0 0 0 0 0 0 0 0 0 0 0 0 0 0 0 0 0 0 0 0 0 0 0 0 0 0
0 0 0 0 0 0 0 0 0 0 0 0 0 0 0 0 0 0 0 0 0 0 0 0 0 0 0 0 0 0 0 0 0 0 0 0 0 0 0 0 0 0 0 0
0 0 0 0 0 0 0 0 0 0 0 0 0 0 0 0 0 0 0 0 0 0 0 0 0 0 0 0 0 0 0 0 0 0 0 0 0 0 0 0 0 0 0 0
0 0 0 0 0 0 0 0 0 0 0 0 0 0 0 0 0 0 0 0 0 0 0 0 0 0 0 0 0 0 0 0 0 0 0 0 0 0 0 0 0 0 0 0
0 0 0 0 0 0 0 0 0 0 0 0 0 0 0 0 0 0 0 0 0 0 0 0 0 0 0 0 0 0 0 0 0 0 0 0 0 0 0 0 0 0 0 0
0 0 0 0 0 0 0 0 0 0 0 0 0 0 0 0 0 0 0 0 0 0 0 0 0 0 0 0 0 0 0 0 0 0 0 0 0 0 0 0 0 0 0 0
0 0 0 0 0 0 0 0 0 0 0 0 0 0 0 0 0 0 0 0 0 0 0 0 0 0 0 0 0 0 0 0 0 0 0 0 0 0 0 0 0 0 0 0
0 0 0 0 0 0 0 0 0 0 0 0 0 0 0 0 0 0 0 0 0 0 0 0 0 0 0 0 0 0 0 0 0 0 -0 -0 -0 0 0 0 0 0 0 0
0 0 0 0 0 0 0 0 0 0 0 0 0 0 0 0 0 0 0 0 0 0 0 0 0 0 0 0 0 0 0 0 0 0 0 0 0 0 0 0 0 0 0 0
0 0 0 0 0 0 0 0 0 0 0 0 0 0 0 0 0 0 0 0 0 0 0 0 0 0 0 0 0 0 0 0 0 0 0 0 0 0 0 0 0 0 0 0
0 0 0 0 0 0 0 0 0 0 0 0 0 0 0 0 0 0 0 0 0 0 0 0 0 0 0 0 0 0 0 0 0 0 0 0 0 0 0 0 0 0 0 0
0 0 0 0 0 0 0 0 0 0 0 0 0 0 0 0 0 0 0 0 0 0 0 0 0 0 0 0 0 0 0 0 0 0 0 0 0 0 0 0 0 0 0 0
0 0 0 0 0 0 0 0 0 0 0 0 0 0 0 0 0 0 0 0 0 0 0 0 0 0 0 0 0 0 0 0 0 0 0 0 0 0 0 0 0 0 0 0
0 0 0 0 0 0 0 0 0 0 0 0 0 0 0 0 -0 0 0 0 0 0 0 0 0 0 0 0 0 0 0 0 0 0 0 0 0 0 0 0 0 0 0 0
0 0 0 0 0 0 0 0 0 0 0 0 0 0 0 0 0 0 0 0 0 0 0 0 0 0 0 0 0 0 0 0 -0 0 0 0 0 0 0 0 0 0 0 0
0 0 0 0 0 0 0 0 0 0 0 0 0 0 0 0 0 0 0 0 0 0 0 0 0 0 0 0 0 0 0 0 0 0 0 0 0 0 0 0 0 0 0 0
0 0 0 0 0 0 0 0 0 0 0 0 0 -0 0 0 0 0 0 0 0 0 0 0 0 0 0 0 0 0 0 0 0 0 0 0 0 0 0 0 0 0 0 0
0 0 0 0 0 0 0 0 0 0 0 0 -0 -0 0 0 0 0 0 0 0 0 0 0 0 0 0 0 0 0 0 0 0 0 0 0 0 0 0 0 0 0 0 0
0 0 0 0 0 0 0 0 0 0 0 0 -0 -0 0 0 0 0 0 0 0 0 0 0 0 0 0 0 0 0 0 0 0 0 0 0 0 0 0 0 0 0 0 0
0 0 0 0 0 0 0 0 0 0 0 0 -0 -0 0 0 0 0 0 0 0 0 0 0 0 0 0 0 0 0 0 0 0 0 0 0 0 0 0 0 0 0 0 0
0 0 0 0 0 0 0 0 0 -0 -0 0 0 0 0 0 0 0 0 0 0 0 0 0 0 0 0 0 0 0 0 0 0 0 0 0 0 0 0 0 0 0 0 0
0 0 0 0 0 0 0 0 0 -0 -0 0 0 0 0 0 0 0 0 0 0 0 0 0 0 0 0 0 0 0 0 0 0 0 0 0 0 0 0 0 0 0 0 0
0 0 0 0 0 0 0 0 0 -0 0 0 0 0 0 0 0 0 0 0 0 0 0 0 0 0 0 0 0 0 0 0 0 0 0 0 0 0 0 0 0 0 0 0
Wind_Speed
11 10 8 11 12 12 15 14 14 17 19 24 19 14 13 12 12 12 11 11 10 10 10 9 9 9 9 10 10 10 8 8 9 9 7 6 6 5 5 5 6 6 6 6
9 9 11 17 18 18 19 17 20 22 26 22 16 11 11 12 11 12 12 12 11 11 10 10 10 10 10 10 10 9 9 9 9 9 7 6 5 4 4 4 4 4 4 5
7 4 6 14 14 15 11 11 11 18 19 13 11 12 11 10 10 11 12 11 11 10 9 9 9 9 9 10 10 9 9 9 9 9 8 6 5 4 4 3 2 3 3 4
4 2 12 10 4 7 10 12 13 14 14 12 12 11 10 9 10 10 10 10 9 9 9 9 8 8 9 9 9 9 9 9 9 9 8 7 5 4 4 2 2 2 2 2
4 6 13 10 5 6 7 11 12 14 15 13 9 7 9 8 7 8 9 8 8 8 8 8 8 8 8 9 8 8 9 10 10 9 8 7 6 5 4 4 3 2 2 2
5 6 11 9 3 4 2 9 8 8 11 9 3 5 9 7 6 8 8 7 7 7 6 7 8 7 7 8 9 9 9 9 9 8 8 7 6 6 4 3 4 3 2 2
10 10 13 8 4 5 4 10 4 5 7 6 6 9 9 8 7 7 7 8 7 6 6 6 6 6 7 8 9 9 9 9 9 8 7 6 6 4 4 4 4 3 2 2
7 9 14 6 8 10 11 4 3 5 5 7 9 10 9 9 9 8 8 7 6 6 6 6 5 5 7 8 9 8 8 8 9 8 6 6 6 5 3 3 3 3 2 2
12 13 6 7 9 7 3 5 6 6 7 7 8 9 9 8 8 8 7 7 5 5 6 6 5 4 7 8 8 8 8 8 8 8 6 5 5 4 3 3 3 3 2 1
8 12 9 8 8 8 7 8 8 7 7 6 8 9 9 8 7 7 7 6 5 5 6 6 6 5 6 8 8 7 8 8 7 7 7 6 5 3 3 2 3 3 3 2
10 9 7 9 10 11 9 8 8 8 7 7 7 8 7 7 7 6 6 5 4 4 5 6 6 6 6 6 7 7 7 7 7 6 6 6 5 4 4 3 3 4 3 2
12 9 8 8 6 6 7 8 8 7 7 6 6 7 7 7 6 5 5 5 5 5 6 6 6 7 7 6 6 6 7 6 5 5 5 5 5 5 5 5 7 8 6 4
10 7 7 8 6 5 6 7 6 6 7 7 6 5 6 6 5 5 5 5 5 6 6 6 6 7 7 6 6 6 6 6 5 5 5 5 4 4 4 5 6 6 5 6
8 5 7 7 7 6 5 6 5 5 5 5 5 5 4 5 5 5 5 5 5 5 6 6 6 7 7 6 6 7 6 6 6 5 5 5 4 4 3 3 4 4 5 5
8 8 8 6 4 4 3 3 3 5 5 5 4 4 4 5 5 6 5 5 5 5 5 5 6 7 6 6 6 7 6 4 4 4 5 5 4 3 3 3 2 3 3 4
5 5 5 4 5 4 3 3 4 5 5 5 4 4 4 4 5 5 4 4 4 6 6 6 7 7 6 6 6 5 5 9 7 5 4 5 4 3 2 2 2 2 2 2
4 4 4 4 5 5 4 4 4 5 4 4 4 4 3 3 4 4 4 4 4 5 6 6 7 7 7 6 5 4 5 6 9 6 4 4 4 3 2 1 1 2 2 3
5 5 4 4 4 4 4 3 3 3 4 4 3 3 3 3 4 5 5 5 5 6 5 5 6 6 6 6 5 4 4 5 4 4 4 4 3 2 1 1 1 1 2 2
2 2 2 2 2 2 2 3 3 2 2 2 2 2 3 3 4 4 5 5 5 7 7 7 10 7 6 7 7 4 4 4 4 4 4 5 4 2 1 1 1 1 1 2
0 0 0 0 1 0 1 1 1 1 2 1 1 2 3 4 4 4 5 4 4 5 7 8 7 6 6 6 8 4 4 4 4 4 4 3 2 1 1 1 1 1 1 1
1 1 1 1 2 2 1 0 0 1 2 1 1 2 3 4 4 4 4 5 5 6 7 9 6 5 5 6 7 4 4 4 4 4 3 2 2 1 1 0 1 1 1 1
0 1 1 1 1 2 2 2 1 1 2 2 2 2 3 4 4 4 4 4 6 9 6 4 4 7 9 8 4 4 4 4 4 3 3 2 2 1 1 0 0 1 0 0
0 0 1 0 0 1 2 2 2 1 2 2 3 3 3 4 3 3 5 4 4 9 6 4 8 12 12 6 3 4 4 4 4 4 2 2 1 1 1 1 1 1 1 1
0 1 0 1 1 1 2 3 2 2 2 3 3 3 3 3 3 3 4 8 10 10 6 8 12 12 10 4 4 4 3 4 4 3 2 2 1 1 1 1 1 1 1 1
0 0 1 1 1 1 2 2 3 3 3 3 4 4 3 2 3 4 4 5 9 9 6 8 12 12 6 4 4 4 4 3 4 3 2 1 1 0 1 1 1 1 1 2
0 0 0 1 1 1 1 1 2 2 3 3 3 3 3 3 3 3 4 4 6 8 6 5 5 7 4 4 4 4 4 5 5 3 2 1 0 0 1 1 1 1 2 2
1 1 1 1 1 1 1 1 2 3 3 3 4 4 4 4 3 4 4 4 4 4 4 4 4 4 4 4 4 4 4 3 3 2 1 1 0 1 1 1 1 2 2 3
Wind_Direction
253 262 251 246 243 220 218 224 239 257 263 274 280 284 288 290 294 299 299 301 302 304 306 308 311 312 314 314 317 320 323 320 312 308 303 299 287 276 265 257 247 239 226 228
264 253 255 264 255 240 238 237 244 260 270 270 277 281 282 285 290 293 293 296 299 304 308 310 311 313 315 316 317 323 324 320 321 324 318 314 305 295 284 269 252 242 229 220
271 284 295 264 241 227 224 218 219 243 256 277 286 283 282 286 288 285 287 292 297 302 303 305 307 310 314 315 318 322 323 326 327 327 322 319 316 311 300 284 264 247 237 231
269 313 251 248 207 209 228 243 229 243 260 270 269 280 280 273 271 279 284 289 295 299 302 305 307 313 316 320 322 323 326 327 328 326 321 320 321 318 316 304 289 266 259 264
225 251 273 281 237 195 213 261 235 239 258 267 278 299 287 267 256 263 273 279 284 289 294 303 309 316 321 325 327 328 328 326 327 324 320 323 325 321 325 325 308 285 274 262
212 232 252 256 225 184 136 277 251 224 248 265 293 300 289 292 281 278 281 283 288 296 302 306 311 320 323 323 327 325 322 319 321 322 318 319 317 315 321 319 306 301 289 265
225 241 261 252 185 134 199 252 256 214 238 246 232 242 273 296 291 285 287 290 295 299 298 299 309 320 320 319 319 316 317 317 319 322 317 316 318 316 322 322 322 315 298 287
198 223 250 204 153 193 225 253 266 259 252 252 258 273 285 289 289 293 295 298 301 299 298 303 312 319 315 312 311 318 320 317 317 319 319 327 325 320 327 331 329 320 309 315
200 220 240 182 204 227 237 256 263 262 268 266 272 279 286 288 287 290 291 295 298 293 298 305 311 313 306 308 316 321 323 322 320 320 319 325 323 322 330 341 327 321 310 316
243 255 254 252 259 264 255 253 261 263 269 267 267 278 284 285 289 291 291 294 302 304 303 306 313 311 301 309 316 319 321 321 322 324 325 327 324 320 323 322 315 315 319 332
248 264 279 261 247 251 257 258 262 266 265 263 267 275 277 281 284 286 291 298 298 293 292 298 309 310 311 315 319 320 319 318 322 324 324 322 320 316 310 289 301 309 309 310
238 233 225 252 254 247 249 257 262 268 275 271 258 269 277 277 278 283 289 296 300 298 297 300 305 305 310 315 317 317 318 317 319 321 322 317 316 323 324 313 324 321 308 309
239 245 238 257 267 256 253 262 265 262 263 272 273 265 270 276 283 286 291 296 295 293 294 299 302 302 306 312 311 307 307 309 312 316 317 316 315 319 327 339 342 342 342 343
238 243 258 255 258 263 260 265 269 270 266 263 267 272 274 280 288 289 290 292 293 295 298 299 298 298 304 308 308 306 305 304 310 307 308 311 310 311 316 324 335 346 357 3
237 229 239 260 271 274 272 273 278 280 280 279 275 279 283 285 288 291 294 298 302 303 304 305 304 305 310 310 308 307 309 308 307 304 305 307 307 310 319 323 330 333 343 3
241 242 243 251 258 266 273 269 266 274 279 280 285 285 283 283 288 295 304 312 310 305 304 305 304 306 310 310 308 306 305 306 310 308 308 311 313 318 326 331 336 335 341 348
216 241 241 254 259 265 261 256 255 267 276 278 281 289 297 302 305 308 311 310 300 294 297 301 303 307 310 308 305 303 304 306 310 313 309 305 306 307 314 329 335 337 337 336
218 228 230 234 243 254 266 274 273 275 276 281 290 298 300 299 298 302 307 313 314 312 309 309 309 315 314 313 310 303 301 301 304 307 305 303 305 303 311 319 318 331 347 1
226 224 233 239 236 229 253 274 281 283 289 295 297 296 296 298 300 304 312 318 320 318 317 318 319 323 315 312 314 303 300 300 302 303 301 302 310 317 313 306 320 350 350 358
175 173 147 32 15 215 250 286 292 304 306 306 314 317 315 312 314 314 314 305 296 293 303 312 315 313 312 310 313 307 302 300 299 303 303 304 310 312 308 320 352 353 351 359
82 68 69 61 32 16 3 314 300 312 320 321 306 295 298 305 311 312 313 307 306 308 312 317 320 314 311 311 311 309 307 303 298 298 298 299 301 303 298 327 340 330 342 0
68 68 64 61 59 16 359 4 357 338 335 329 321 313 312 311 311 307 290 280 299 314 319 312 311 312 316 315 309 305 301 299 295 291 285 282 280 281 285 267 267 278 293 92
48 79 75 52 46 1 356 359 355 340 320 313 310 306 299 294 296 299 304 303 306 314 319 307 311 316 321 322 313 305 301 299 298 293 280 267 259 252 248 245 221 187 159 143
51 46 43 19 49 39 351 334 336 327 312 306 301 297 295 300 300 281 280 306 316 317 315 312 319 323 327 331 323 316 309 303 301 297 284 266 254 243 223 197 174 159 148 134
65 63 55 49 17 315 307 320 331 329 325 317 312 307 297 274 274 293 300 303 311 318 316 316 321 324 329 324 319 315 311 306 301 299 293 279 258 222 164 151 162 155 143 132
20 357 305 285 277 285 295 304 311 315 319 318 316 312 310 303 293 296 303 305 306 314 315 312 315 318 320 317 313 312 309 308 308 311 314 309 288 160 147 139 145 144 136 128
26 13 359 340 325 302 289 291 296 303 305 304 304 307 311 314 316 316 313 312 312 312 311 312 314 314 314 314 312 312 310 309 306 305 310 308 269 158 147 149 150 141 136 137